Location: Cahas Mountain Overlook
(37.0833°N, 80.1000°W)
Time: 09:09:51
(UTC-05:00)

S-56A Canister/Altair - Pass Details

Date: 05 December 2023
Orbit: 640 x 2488 km, 38.9° (Epoch: 25 February)

Event Time Altitude Azimuth Distance (km) Brightness Sun altitude
Rises 18:32:24 0° 273° (W) 3,367 12.2 -17.4°
Reaches altitude 10° 18:35:21 10° 255° (WSW) 2,646 11.6 -17.9°
Maximum altitude 18:39:40 19° 212° (SSW) 2,387 10.6 -18.8°
Drops below altitude 10° 18:45:05 10° 171° (S) 3,451 10.9 -19.8°
Sets 18:49:45 0° 156° (SSE) 4,818 11.5 -20.7°
